This is the latest recevied weather packets stored in our database for station/object CR7BQX-11. If no packets are shown the sender has not sent any weather packets the latest 10 day(s).
| Time | Temp. | Humidity | Pressure | Rain* | Wind** | Luminosity | Snow |
|---|---|---|---|---|---|---|---|
| 1777368520 | 25° C | 51% | 997.6 hPa | - | - | - | - |
| 1777364919 | 24.44° C | 52% | 997.4 hPa | - | - | - | - |
| 1777362218 | 25° C | 52% | 997.5 hPa | - | - | - | - |
| 1777361318 | 24.44° C | 52% | 997.2 hPa | - | - | - | - |
| 1777360418 | 24.44° C | 52% | 997.2 hPa | - | - | - | - |
| 1777357717 | 24.44° C | 53% | 997 hPa | - | - | - | - |
| 1777356817 | 24.44° C | 53% | 997 hPa | - | - | - | - |
| 1777355919 | 23.89° C | 53% | 997 hPa | - | - | - | - |
| 1777354117 | 23.89° C | 53% | 996.8 hPa | - | - | - | - |
| 1777353217 | 23.89° C | 53% | 996.8 hPa | - | - | - | - |
| 1777352316 | 23.89° C | 53% | 996.8 hPa | - | - | - | - |
| 1777350516 | 24.44° C | 53% | 997.1 hPa | - | - | - | - |
| 1777349615 | 23.89° C | 54% | 997.1 hPa | - | - | - | - |
| 1777348718 | 24.44° C | 54% | 997.1 hPa | - | - | - | - |
| 1777347818 | 24.44° C | 54% | 997.3 hPa | - | - | - | - |
| 1777346918 | 24.44° C | 54% | 997.4 hPa | - | - | - | - |
| 1777346018 | 24.44° C | 53% | 997.5 hPa | - | - | - | - |
| 1777345118 | 24.44° C | 53% | 997.6 hPa | - | - | - | - |
| 1777340617 | 24.44° C | 53% | 998.1 hPa | - | - | - | - |
| 1777339716 | 24.44° C | 53% | 998.1 hPa | - | - | - | - |
| 1777337916 | 25° C | 53% | 998.5 hPa | - | - | - | - |
| 1777336116 | 25° C | 53% | 998.5 hPa | - | - | - | - |
| 1777335216 | 25° C | 53% | 998.6 hPa | - | - | - | - |
| 1777329815 | 25° C | 53% | 999.4 hPa | - | - | - | - |
| 1777310915 | 26.11° C | 52% | 999.1 hPa | - | - | - | - |
* Rain since midnight (hover to see other rain measurements)
** Current wind speed in m/s (hover to see current wind gust speed)